WESTFORD NEEDLES, 2997

Orbit data source: Space-Track

WESTFORD NEEDLES, 2997 is space debris in LEO originally from a launch on Thu, 09 May 1963 UTC launched from the Air Force Western Test Range (AFWTR). Debris objects in space refer to the collection of defunct objects orbiting the Earth. Examples of debris include non-operational satellites, rocket bodies, and fragments generated from explosions, collisions, or faulty payload assembly.

Loading next visibility...
WESTFORD NEEDLES details
Identifier
2997, 1963-014AU
Orbit
LEO
Last TLE update5 days ago
Origin
Flag of USUSAF SSD (US)
ManufacturerUnknown
MissionSpacecraft
Bus & MotorUnknown
MassUnknown
Launch date (UTC)
1963-05-09 (62 years ago)
Launch vehicleUnknown
Launch site
Air Force Western Test Range (AFWTR)
Object type
Payload
Rocket body
Debris
Shape & HBRUnknown
Radar Cross SectionMedium (>0.1 m² and <1 m²)

Expand to show TLE details & history

TLE from 5 days ago
0 WESTFORD NEEDLES
1 02997U 63014AU  24352.35555177  .00000549  00000-0  15129+0 0  9990
2 02997  86.8044 230.9362 0877030 139.6792 227.2575  8.77692615268485
Epoch: 2024-12-17T08:31Z
Definitive object data (Epoch: 2024-12-17T08:31:59.672Z)
Latitude0.00004°
Longitude16.47226°
Altitude4,180.316 km
Speed5.947 km/s
True Right ascension15h 23m 44s
True Declination0° 00' 00"
Sunlit
Object was in daylight at TLE epoch
Visualization TLE readout
Latitude-23.2146°
Longitude14.51897°
Altitude4,350.426 km
Speed5.847 km/s
Apparent Right ascension15h 50m 51s
Apparent Declination-29° 53' 22"
Sunlit
Object is in daylight
Visualization observer readout
Local Sidereal Time05:02:02
Azimuth60.901° ENE
Elevation-72.346°
Doppler factor1
Orbital elements
Apogee altitude4,417.631 km
Perigee altitude2,676.676 km
Semi-major axis9,925.291 km
Eccentricity0.087703
Inclination86.8044°
RAAN230.9362°
Arg. of periapsis139.6792°
True anomaly220.40526°
Mean anomaly227.2575°
Eccentric anomaly223.78069°
Mean motion2.19497 °/min
BSTAR0.15129
Orbital period164.01 mins
Loading maneuver chart data...

WESTFORD NEEDLES Visibility forecast

Observer location: undefined°, undefined

Span
Click to sort rows by Start time (UTC) header in descending order
Start Az.
Max El. time (UTC)
Max El. Az.
Max El.
End time (UTC)
End Az.
9 mins2024-12-22 07:01:22.085Z322.321° NNW2024-12-22 07:05:22.085Z304.143° NW12.834°2024-12-22 07:10:22.085Z281.212° WNW
30 mins2024-12-22 14:26:22.085Z133.922° SE2024-12-22 14:42:22.085Z74.116° E33.359°2024-12-22 14:56:22.085Z13.079° NNE
35 mins2024-12-22 17:06:22.085Z199.927° SSW2024-12-22 17:25:22.085Z275.175° WNW40.706°2024-12-22 17:41:22.085Z356.938° N
23 mins2024-12-23 02:06:22.085Z13.406° NNE2024-12-23 02:17:22.085Z74.935° E29.965°2024-12-23 02:29:22.085Z135.211° SSE
25 mins2024-12-23 04:50:22.085Z348.779° N2024-12-23 05:02:22.085Z274.517° WNW38.93°2024-12-23 05:15:22.085Z207.513° SW
|